| time (UTC) | temp F | wind direction | speed MPH | gust MPH | rain 1hr in | rain 24hr in | rain mn in | humidity % | barometer mb |
| 20260505092331 | 46 | 286 | 0.0 | 0.0 | 0.00 | 0.00 | 0.00 | 87 | 1008.3 |
| 20260505091828 | 48 | 310 | 0.0 | 0.0 | 0.00 | 0.00 | 0.00 | 85 | 1008.3 |
| 20260505091326 | 47 | 353 | 0.0 | 0.0 | 0.00 | 0.00 | 0.00 | 86 | 1008.3 |
| 20260505090824 | 46 | 306 | 0.0 | 0.0 | 0.00 | 0.00 | 0.00 | 88 | 1008.6 |
| 20260505090322 | 45 | 302 | 0.0 | 0.0 | 0.00 | 0.00 | 0.00 | 89 | 1008.3 |
| 20260505085818 | 44 | 299 | 0.0 | 0.0 | 0.00 | 0.00 | 0.00 | 90 | 1008.3 |
| 20260505085317 | 45 | 290 | 0.0 | 0.0 | 0.00 | 0.00 | 0.00 | 89 | 1008.3 |
| 20260505084814 | 45 | 294 | 0.0 | 0.0 | 0.00 | 0.00 | 0.00 | 89 | 1008.5 |
| 20260505084313 | 45 | 301 | 0.0 | 0.0 | 0.00 | 0.00 | 0.00 | 89 | 1008.4 |
| 20260505083809 | 46 | 282 | 0.0 | 0.0 | 0.00 | 0.00 | 0.00 | 89 | 1008.7 |
| 20260505083306 | 46 | 296 | 0.0 | 0.0 | 0.00 | 0.00 | 0.00 | 87 | 1008.7 |
| 20260505082803 | 46 | 329 | 0.0 | 0.0 | 0.00 | 0.00 | 0.00 | 86 | 1008.6 |
| 20260505082259 | 46 | 311 | 0.0 | 0.0 | 0.00 | 0.00 | 0.00 | 86 | 1008.6 |
| 20260505081755 | 47 | 306 | 0.0 | 0.0 | 0.00 | 0.00 | 0.00 | 84 | 1008.7 |
| 20260505081252 | 47 | 313 | 0.0 | 0.0 | 0.00 | 0.00 | 0.00 | 84 | 1008.7 |
| 20260505080749 | 47 | 307 | 0.0 | 0.0 | 0.00 | 0.00 | 0.00 | 83 | 1008.8 |
| 20260505080245 | 48 | 300 | 0.0 | 0.0 | 0.00 | 0.00 | 0.00 | 82 | 1008.7 |
| 20260505075740 | 48 | 336 | 0.0 | 0.0 | 0.00 | 0.00 | 0.00 | 81 | 1008.9 |
| 20260505075238 | 49 | 139 | 1.0 | 2.0 | 0.00 | 0.00 | 0.00 | 80 | 1008.7 |
| 20260505074735 | 50 | 313 | 0.0 | 0.0 | 0.00 | 0.00 | 0.00 | 79 | 1008.9 |
| 20260505074232 | 50 | 356 | 0.0 | 0.0 | 0.00 | 0.00 | 0.00 | 77 | 1008.7 |
| 20260505073730 | 51 | 357 | 0.0 | 0.0 | 0.00 | 0.00 | 0.00 | 76 | 1008.6 |
| 20260505073227 | 51 | 344 | 0.0 | 1.0 | 0.00 | 0.00 | 0.00 | 76 | 1008.8 |
| 20260505072724 | 51 | 309 | 0.0 | 1.0 | 0.00 | 0.00 | 0.00 | 75 | 1008.8 |
| 20260505072220 | 52 | 301 | 0.0 | 0.0 | 0.00 | 0.00 | 0.00 | 74 | 1008.7 |
| 20260505071716 | 53 | 283 | 0.0 | 0.0 | 0.00 | 0.00 | 0.00 | 72 | 1008.6 |
| 20260505071213 | 53 | 168 | 0.0 | 0.0 | 0.00 | 0.00 | 0.00 | 71 | 1008.7 |
| 20260505070711 | 53 | 287 | 0.0 | 0.0 | 0.00 | 0.00 | 0.00 | 70 | 1008.6 |
| 20260505070207 | 54 | 317 | 0.0 | 1.0 | 0.00 | 0.00 | 0.00 | 69 | 1008.6 |
| 20260505065703 | 54 | 303 | 0.0 | 0.0 | 0.00 | 0.00 | 0.00 | 69 | 1008.6 |
| 20260505065200 | 55 | 234 | 0.0 | 0.0 | 0.00 | 0.00 | 0.00 | 68 | 1008.4 |
| 20260505064656 | 55 | 246 | 1.0 | 1.0 | 0.00 | 0.00 | 0.00 | 67 | 1008.6 |
| 20260505064155 | 56 | 275 | 1.0 | 1.0 | 0.00 | 0.00 | 0.00 | 66 | 1008.4 |
| 20260505063652 | 56 | 228 | 1.0 | 2.0 | 0.00 | 0.00 | 0.00 | 65 | 1008.7 |
| 20260505063148 | 56 | 210 | 2.0 | 3.0 | 0.00 | 0.00 | 0.00 | 65 | 1008.5 |
| 20260505062644 | 56 | 248 | 1.0 | 2.0 | 0.00 | 0.00 | 0.00 | 65 | 1008.5 |
| 20260505062142 | 57 | 220 | 1.0 | 2.0 | 0.00 | 0.00 | 0.00 | 64 | 1008.6 |
| 20260505061639 | 56 | 260 | 1.0 | 1.0 | 0.00 | 0.00 | 0.00 | 66 | 1008.6 |
| 20260505061137 | 56 | 219 | 1.0 | 1.0 | 0.00 | 0.00 | 0.00 | 65 | 1008.6 |
| 20260505060634 | 57 | 230 | 1.0 | 1.0 | 0.00 | 0.00 | 0.00 | 64 | 1008.5 |
| 20260505060130 | 57 | 195 | 2.0 | 2.0 | 0.00 | 0.00 | 0.00 | 64 | 1008.5 |
| 20260505055626 | 57 | 209 | 2.0 | 2.0 | 0.00 | 0.00 | 0.00 | 63 | 1008.7 |
| 20260505055123 | 57 | 230 | 2.0 | 2.0 | 0.00 | 0.00 | 0.00 | 63 | 1008.4 |
| 20260505054620 | 57 | 241 | 2.0 | 2.0 | 0.00 | 0.00 | 0.00 | 63 | 1008.6 |
| 20260505054118 | 58 | 220 | 3.0 | 3.0 | 0.00 | 0.00 | 0.00 | 62 | 1008.6 |
| 20260505053615 | 58 | 229 | 2.0 | 2.0 | 0.00 | 0.00 | 0.00 | 62 | 1008.7 |
| 20260505053111 | 58 | 240 | 2.0 | 2.0 | 0.00 | 0.00 | 0.00 | 61 | 1008.4 |
| 20260505052608 | 58 | 231 | 1.0 | 1.0 | 0.00 | 0.00 | 0.00 | 61 | 1008.2 |
| 20260505052106 | 58 | 209 | 2.0 | 3.0 | 0.00 | 0.00 | 0.00 | 62 | 1008.5 |
| 20260505051603 | 58 | 235 | 2.0 | 2.0 | 0.00 | 0.00 | 0.00 | 62 | 1008.4 |
| 20260505051101 | 58 | 245 | 2.0 | 3.0 | 0.00 | 0.00 | 0.00 | 62 | 1008.5 |
| 20260505050558 | 58 | 246 | 1.0 | 1.0 | 0.00 | 0.00 | 0.00 | 62 | 1008.6 |
| 20260505041526 | 59 | 223 | 2.0 | 3.0 | 0.00 | 0.00 | 0.00 | 62 | 1008.1 |
| 20260505041024 | 58 | 235 | 2.0 | 3.0 | 0.00 | 0.00 | 0.00 | 61 | 1008.0 |
| 20260505040521 | 59 | 209 | 2.0 | 2.0 | 0.00 | 0.00 | 0.00 | 62 | 1007.9 |
| 20260505040018 | 58 | 206 | 3.0 | 3.0 | 0.00 | 0.00 | 0.00 | 61 | 1008.0 |
| 20260505035514 | 58 | 214 | 2.0 | 2.0 | 0.00 | 0.00 | 0.00 | 61 | 1007.8 |
| 20260505035011 | 58 | 213 | 2.0 | 3.0 | 0.00 | 0.00 | 0.00 | 61 | 1008.0 |
| 20260505034507 | 58 | 232 | 2.0 | 2.0 | 0.00 | 0.00 | 0.00 | 61 | 1007.9 |
| 20260505034005 | 58 | 223 | 2.0 | 3.0 | 0.00 | 0.00 | 0.00 | 61 | 1007.9 |
| 20260505033501 | 57 | 250 | 3.0 | 3.0 | 0.00 | 0.00 | 0.00 | 63 | 1007.9 |
| 20260505033000 | 57 | 220 | 2.0 | 3.0 | 0.00 | 0.00 | 0.00 | 62 | 1007.8 |
| 20260505032457 | 57 | 198 | 3.0 | 3.0 | 0.00 | 0.00 | 0.00 | 63 | 1007.8 |
| 20260505031953 | 57 | 200 | 2.0 | 3.0 | 0.00 | 0.00 | 0.00 | 64 | 1007.8 |
| 20260505031450 | 56 | 215 | 4.0 | 4.0 | 0.00 | 0.00 | 0.00 | 64 | 1007.8 |
| 20260505030947 | 55 | 275 | 1.0 | 1.0 | 0.00 | 0.00 | 0.00 | 68 | 1007.8 |
| 20260505030443 | 52 | 280 | 1.0 | 1.0 | 0.00 | 0.00 | 0.00 | 75 | 1007.5 |
| 20260505025938 | 51 | 244 | 0.0 | 0.0 | 0.00 | 0.00 | 0.00 | 78 | 1007.8 |
| 20260505025435 | 51 | 61 | 1.0 | 1.0 | 0.00 | 0.00 | 0.00 | 78 | 1007.7 |
| 20260505024934 | 51 | 16 | 0.0 | 0.0 | 0.00 | 0.00 | 0.00 | 77 | 1007.8 |
| 20260505024431 | 51 | 247 | 0.0 | 0.0 | 0.00 | 0.00 | 0.00 | 77 | 1007.8 |
| 20260505023928 | 51 | 313 | 0.0 | 0.0 | 0.00 | 0.00 | 0.00 | 77 | 1007.6 |
| 20260505023425 | 51 | 292 | 0.0 | 0.0 | 0.00 | 0.00 | 0.00 | 78 | 1007.6 |
| 20260505022923 | 50 | 305 | 0.0 | 0.0 | 0.00 | 0.00 | 0.00 | 78 | 1007.7 |
| 20260505022421 | 50 | 294 | 0.0 | 0.0 | 0.00 | 0.00 | 0.00 | 77 | 1007.5 |
| 20260505021917 | 50 | 288 | 0.0 | 0.0 | 0.00 | 0.00 | 0.00 | 78 | 1007.5 |
| 20260505021413 | 50 | 299 | 0.0 | 0.0 | 0.00 | 0.00 | 0.00 | 78 | 1007.5 |
| 20260505020909 | 51 | 240 | 0.0 | 0.0 | 0.00 | 0.00 | 0.00 | 76 | 1007.3 |
| 20260505020405 | 50 | 324 | 0.0 | 0.0 | 0.00 | 0.00 | 0.00 | 76 | 1007.4 |
| 20260505015902 | 51 | 290 | 0.0 | 0.0 | 0.00 | 0.00 | 0.00 | 76 | 1007.2 |
| 20260505015359 | 51 | 294 | 0.0 | 0.0 | 0.00 | 0.00 | 0.00 | 76 | 1007.3 |
| 20260505014856 | 51 | 291 | 0.0 | 0.0 | 0.00 | 0.00 | 0.00 | 75 | 1007.3 |
| 20260505014353 | 51 | 313 | 0.0 | 0.0 | 0.00 | 0.00 | 0.00 | 74 | 1007.2 |
| 20260505013850 | 51 | 286 | 0.0 | 0.0 | 0.00 | 0.00 | 0.00 | 74 | 1007.2 |
| 20260505013347 | 51 | 299 | 0.0 | 0.0 | 0.00 | 0.00 | 0.00 | 73 | 1007.1 |
| 20260505012845 | 52 | 298 | 0.0 | 0.0 | 0.00 | 0.00 | 0.00 | 73 | 1007.0 |
| 20260505012343 | 52 | 296 | 0.0 | 0.0 | 0.00 | 0.00 | 0.00 | 73 | 1007.0 |
| 20260505011839 | 52 | 303 | 0.0 | 0.0 | 0.00 | 0.00 | 0.00 | 71 | 1006.8 |
| 20260505011336 | 52 | 305 | 0.0 | 0.0 | 0.00 | 0.00 | 0.00 | 70 | 1007.0 |
| 20260505010832 | 52 | 309 | 0.0 | 0.0 | 0.00 | 0.00 | 0.00 | 68 | 1006.8 |
| 20260505010327 | 53 | 298 | 0.0 | 0.0 | 0.00 | 0.00 | 0.00 | 70 | 1006.8 |
| 20260505005824 | 53 | 290 | 0.0 | 0.0 | 0.00 | 0.00 | 0.00 | 70 | 1006.8 |
| 20260505005321 | 53 | 296 | 0.0 | 0.0 | 0.00 | 0.00 | 0.00 | 68 | 1006.7 |
| 20260505004819 | 53 | 292 | 0.0 | 0.0 | 0.00 | 0.00 | 0.00 | 67 | 1006.6 |
| 20260505004315 | 54 | 285 | 0.0 | 0.0 | 0.00 | 0.00 | 0.00 | 65 | 1006.5 |
| 20260505003812 | 55 | 291 | 0.0 | 0.0 | 0.00 | 0.00 | 0.00 | 63 | 1006.4 |
| 20260505003309 | 56 | 296 | 0.0 | 0.0 | 0.00 | 0.00 | 0.00 | 63 | 1006.4 |
| 20260505002805 | 57 | 296 | 0.0 | 0.0 | 0.00 | 0.00 | 0.00 | 60 | 1006.3 |
| 20260505002304 | 58 | 285 | 0.0 | 0.0 | 0.00 | 0.00 | 0.00 | 57 | 1006.0 |
| 20260505001801 | 59 | 285 | 0.0 | 0.0 | 0.00 | 0.00 | 0.00 | 55 | 1006.2 |
| 20260505001257 | 60 | 284 | 0.0 | 0.0 | 0.00 | 0.00 | 0.00 | 53 | 1005.9 |
| 20260505000755 | 61 | 274 | 0.0 | 0.0 | 0.00 | 0.00 | 0.00 | 51 | 1006.0 |
| 20260505000252 | 62 | 277 | 0.0 | 0.0 | 0.00 | 0.00 | 0.00 | 49 | 1005.9 |
| 20260504235749 | 63 | 287 | 0.0 | 0.0 | 0.00 | 0.00 | 0.00 | 48 | 1006.2 |
| 20260504235245 | 64 | 274 | 0.0 | 0.0 | 0.00 | 0.00 | 0.00 | 46 | 1005.9 |
| 20260504234742 | 64 | 300 | 2.0 | 2.0 | 0.00 | 0.00 | 0.00 | 45 | 1005.8 |
| 20260504234240 | 64 | 272 | 2.0 | 2.0 | 0.00 | 0.00 | 0.00 | 45 | 1005.7 |
| 20260504233736 | 65 | 287 | 1.0 | 1.0 | 0.00 | 0.00 | 0.00 | 45 | 1005.8 |
| 20260504233232 | 66 | 269 | 1.0 | 1.0 | 0.00 | 0.00 | 0.00 | 44 | 1005.6 |
| 20260504232729 | 66 | 283 | 0.0 | 1.0 | 0.00 | 0.00 | 0.00 | 43 | 1005.6 |
| 20260504232226 | 66 | 264 | 2.0 | 2.0 | 0.00 | 0.00 | 0.00 | 42 | 1005.4 |
| 20260504231723 | 67 | 245 | 2.0 | 2.0 | 0.00 | 0.00 | 0.00 | 42 | 1005.5 |
| 20260504231219 | 67 | 259 | 1.0 | 1.0 | 0.00 | 0.00 | 0.00 | 42 | 1005.2 |
| 20260504230715 | 67 | 196 | 5.0 | 7.0 | 0.00 | 0.00 | 0.00 | 41 | 1005.4 |
| 20260504230214 | 68 | 236 | 2.0 | 2.0 | 0.00 | 0.00 | 0.00 | 40 | 1005.2 |
| 20260504225712 | 68 | 260 | 3.0 | 3.0 | 0.00 | 0.00 | 0.00 | 41 | 1005.0 |
| 20260504225208 | 68 | 264 | 2.0 | 2.0 | 0.00 | 0.00 | 0.00 | 40 | 1005.1 |
| 20260504224705 | 68 | 227 | 3.0 | 3.0 | 0.00 | 0.00 | 0.00 | 40 | 1005.2 |
| 20260504224203 | 68 | 288 | 3.0 | 4.0 | 0.00 | 0.00 | 0.00 | 39 | 1005.1 |
| 20260504223659 | 68 | 218 | 3.0 | 4.0 | 0.00 | 0.00 | 0.00 | 40 | 1005.1 |
| 20260504223154 | 68 | 290 | 5.0 | 6.0 | 0.00 | 0.00 | 0.00 | 40 | 1005.0 |
| 20260504222652 | 68 | 286 | 1.0 | 1.0 | 0.00 | 0.00 | 0.00 | 42 | 1004.9 |
| 20260504222148 | 68 | 300 | 1.0 | 2.0 | 0.00 | 0.00 | 0.00 | 41 | 1005.0 |
| 20260504221646 | 68 | 270 | 1.0 | 1.0 | 0.00 | 0.00 | 0.00 | 41 | 1005.0 |
| 20260504221143 | 69 | 265 | 3.0 | 4.0 | 0.00 | 0.00 | 0.00 | 40 | 1005.1 |
| 20260504220639 | 69 | 203 | 4.0 | 6.0 | 0.00 | 0.00 | 0.00 | 40 | 1005.0 |
| 20260504220137 | 69 | 257 | 6.0 | 8.0 | 0.00 | 0.00 | 0.00 | 39 | 1004.7 |
| 20260504215633 | 68 | 221 | 8.0 | 10.0 | 0.00 | 0.00 | 0.00 | 39 | 1005.0 |
| 20260504215131 | 69 | 212 | 6.0 | 8.0 | 0.00 | 0.00 | 0.00 | 40 | 1004.9 |
| 20260504214626 | 69 | 219 | 4.0 | 6.0 | 0.00 | 0.00 | 0.00 | 39 | 1004.9 |
| 20260504214123 | 69 | 223 | 9.0 | 11.0 | 0.00 | 0.00 | 0.00 | 38 | 1004.9 |
| 20260504213619 | 70 | 221 | 6.0 | 8.0 | 0.00 | 0.00 | 0.00 | 39 | 1004.9 |
| 20260504213116 | 69 | 261 | 6.0 | 10.0 | 0.00 | 0.00 | 0.00 | 40 | 1005.0 |
| 20260504212612 | 68 | 208 | 5.0 | 7.0 | 0.00 | 0.00 | 0.00 | 40 | 1005.0 |
| 20260504212110 | 68 | 247 | 2.0 | 3.0 | 0.00 | 0.00 | 0.00 | 41 | 1005.0 |
| 20260504211607 | 69 | 208 | 4.0 | 6.0 | 0.00 | 0.00 | 0.00 | 41 | 1005.0 |
| 20260504211103 | 69 | 225 | 2.0 | 3.0 | 0.00 | 0.00 | 0.00 | 40 | 1004.8 |
| 20260504210601 | 70 | 211 | 6.0 | 9.0 | 0.00 | 0.00 | 0.00 | 39 | 1005.0 |
| 20260504210057 | 71 | 272 | 3.0 | 4.0 | 0.00 | 0.00 | 0.00 | 39 | 1005.0 |
| 20260504205555 | 71 | 153 | 7.0 | 8.0 | 0.00 | 0.00 | 0.00 | 37 | 1004.9 |
| 20260504205053 | 70 | 257 | 3.0 | 4.0 | 0.00 | 0.00 | 0.00 | 41 | 1004.9 |
| 20260504204550 | 70 | 254 | 3.0 | 6.0 | 0.00 | 0.00 | 0.00 | 40 | 1004.9 |
| 20260504204049 | 71 | 181 | 6.0 | 7.0 | 0.00 | 0.00 | 0.00 | 39 | 1004.9 |
| 20260504203547 | 70 | 329 | 2.0 | 3.0 | 0.00 | 0.00 | 0.00 | 42 | 1004.9 |
| 20260504203044 | 70 | 266 | 6.0 | 7.0 | 0.00 | 0.00 | 0.00 | 40 | 1004.8 |
| 20260504202539 | 69 | 285 | 7.0 | 8.0 | 0.00 | 0.00 | 0.00 | 39 | 1004.8 |
| 20260504202037 | 69 | 271 | 8.0 | 10.0 | 0.00 | 0.00 | 0.00 | 41 | 1004.9 |
| 20260504201534 | 69 | 220 | 5.0 | 7.0 | 0.00 | 0.00 | 0.00 | 41 | 1004.9 |
| 20260504201032 | 68 | 284 | 2.0 | 3.0 | 0.00 | 0.00 | 0.00 | 43 | 1005.0 |
| 20260504200527 | 69 | 248 | 5.0 | 8.0 | 0.00 | 0.00 | 0.00 | 41 | 1004.9 |
| 20260504200025 | 69 | 252 | 4.0 | 4.0 | 0.00 | 0.00 | 0.00 | 42 | 1004.9 |
| 20260504195521 | 69 | 294 | 5.0 | 7.0 | 0.00 | 0.00 | 0.00 | 43 | 1004.9 |
| 20260504195017 | 70 | 266 | 7.0 | 11.0 | 0.00 | 0.00 | 0.00 | 41 | 1005.1 |
| 20260504194514 | 70 | 280 | 5.0 | 7.0 | 0.00 | 0.00 | 0.00 | 41 | 1005.2 |
| 20260504194009 | 69 | 276 | 3.0 | 4.0 | 0.00 | 0.00 | 0.00 | 43 | 1005.1 |
| 20260504193506 | 69 | 210 | 6.0 | 7.0 | 0.00 | 0.00 | 0.00 | 42 | 1005.2 |
| 20260504193005 | 69 | 244 | 7.0 | 13.0 | 0.00 | 0.00 | 0.00 | 42 | 1005.2 |
| 20260504192503 | 70 | 22 | 2.0 | 3.0 | 0.00 | 0.00 | 0.00 | 42 | 1005.0 |
| 20260504192001 | 68 | 251 | 2.0 | 3.0 | 0.00 | 0.00 | 0.00 | 44 | 1005.2 |
| 20260504191458 | 68 | 308 | 13.0 | 17.0 | 0.00 | 0.00 | 0.00 | 41 | 1005.1 |
| 20260504190954 | 68 | 230 | 4.0 | 7.0 | 0.00 | 0.00 | 0.00 | 43 | 1005.0 |
| 20260504190449 | 68 | 302 | 7.0 | 9.0 | 0.00 | 0.00 | 0.00 | 42 | 1005.1 |
| 20260504185946 | 67 | 193 | 4.0 | 4.0 | 0.00 | 0.00 | 0.00 | 44 | 1005.2 |
| 20260504185444 | 66 | 198 | 4.0 | 6.0 | 0.00 | 0.00 | 0.00 | 46 | 1005.3 |
| 20260504184939 | 66 | 235 | 4.0 | 4.0 | 0.00 | 0.00 | 0.00 | 46 | 1005.1 |
| 20260504184436 | 64 | 237 | 2.0 | 2.0 | 0.00 | 0.00 | 0.00 | 46 | 1005.5 |
| 20260504183931 | 64 | 288 | 4.0 | 6.0 | 0.00 | 0.00 | 0.00 | 46 | 1005.4 |
| 20260504183429 | 64 | 283 | 6.0 | 7.0 | 0.00 | 0.00 | 0.00 | 45 | 1005.4 |
| 20260504182927 | 64 | 265 | 6.0 | 7.0 | 0.00 | 0.00 | 0.00 | 46 | 1005.5 |
| 20260504182423 | 64 | 17 | 1.0 | 2.0 | 0.00 | 0.00 | 0.00 | 46 | 1005.7 |
| 20260504181921 | 64 | 292 | 3.0 | 3.0 | 0.00 | 0.00 | 0.00 | 45 | 1005.6 |
| 20260504181418 | 64 | 276 | 6.0 | 9.0 | 0.00 | 0.00 | 0.00 | 43 | 1005.4 |
| 20260504180916 | 64 | 305 | 4.0 | 8.0 | 0.00 | 0.00 | 0.00 | 44 | 1005.3 |
| 20260504180415 | 64 | 226 | 3.0 | 3.0 | 0.00 | 0.00 | 0.00 | 45 | 1005.4 |
| 20260504175913 | 65 | 252 | 2.0 | 4.0 | 0.00 | 0.00 | 0.00 | 43 | 1005.5 |
| 20260504175409 | 65 | 266 | 3.0 | 4.0 | 0.00 | 0.00 | 0.00 | 44 | 1005.7 |
| 20260504174907 | 65 | 283 | 3.0 | 3.0 | 0.00 | 0.00 | 0.00 | 43 | 1005.5 |
| 20260504174404 | 65 | 226 | 5.0 | 7.0 | 0.00 | 0.00 | 0.00 | 42 | 1005.5 |
| 20260504173902 | 65 | 277 | 4.0 | 6.0 | 0.00 | 0.00 | 0.00 | 43 | 1005.4 |
| 20260504173358 | 65 | 298 | 6.0 | 8.0 | 0.00 | 0.00 | 0.00 | 41 | 1005.5 |
| 20260504172855 | 65 | 173 | 7.0 | 11.0 | 0.00 | 0.00 | 0.00 | 41 | 1005.4 |
| 20260504172352 | 65 | 225 | 3.0 | 6.0 | 0.00 | 0.00 | 0.00 | 42 | 1005.7 |
| 20260504171847 | 65 | 266 | 7.0 | 11.0 | 0.00 | 0.00 | 0.00 | 40 | 1005.3 |
| 20260504171345 | 66 | 261 | 7.0 | 9.0 | 0.00 | 0.00 | 0.00 | 41 | 1005.6 |
| 20260504170842 | 67 | 269 | 6.0 | 8.0 | 0.00 | 0.00 | 0.00 | 41 | 1005.2 |
| 20260504170338 | 67 | 294 | 9.0 | 11.0 | 0.00 | 0.00 | 0.00 | 40 | 1005.1 |
| 20260504160257 | 66 | 277 | 8.0 | 10.0 | 0.00 | 0.00 | 0.00 | 46 | 1005.3 |
| 20260504150722 | 62 | 201 | 9.0 | 14.0 | 0.00 | 0.00 | 0.00 | 49 | 1006.3 |
| 20260504150219 | 62 | 257 | 5.0 | 7.0 | 0.00 | 0.00 | 0.00 | 51 | 1006.3 |
| 20260504141148 | 59 | 216 | 4.0 | 6.0 | 0.00 | 0.00 | 0.00 | 58 | 1007.1 |
| 20260504140645 | 58 | 220 | 2.0 | 2.0 | 0.00 | 0.00 | 0.00 | 61 | 1007.3 |
| 20260504140140 | 57 | 234 | 0.0 | 0.0 | 0.00 | 0.00 | 0.00 | 62 | 1007.3 |
| 20260504130609 | 51 | 263 | 1.0 | 1.0 | 0.00 | 0.00 | 0.00 | 71 | 1008.0 |
| 20260504130106 | 51 | 227 | 2.0 | 2.0 | 0.00 | 0.00 | 0.00 | 70 | 1008.3 |
| 20260504110457 | 45 | 281 | 0.0 | 0.0 | 0.00 | 0.00 | 0.00 | 78 | 1008.6 |
| 20260504100419 | 36 | 13 | 0.0 | 0.0 | 0.00 | 0.00 | 0.00 | 90 | 1008.5 |